User: anonymous   Login
Location: Castiglione Fibocchi
(43.5333°N, 11.7667°E)
Time: 10:03:13
(UTC+00:00)
Language:

Cosmos 1758 Rocket - Orbit

View from above orbital plane
View from above orbital plane
View from above satellite
View from above satellite

Ground track
Ground track

The orbit data is extracted from the following two-line orbital elements,

1 16792U 86046B   20299.95852538 +.00000108 +00000-0 +10229-4 0  9993
2 16792 082.4797 127.9654 0023403 210.4777 305.9730 14.83254949835639
Epoch (UTC): 25 October 2020 23:00:16
Eccentricity: 0.0023403
inclination: 82.4797°
perigee height: 602 km
apogee height: 635 km
right ascension of ascending node: 127.9654°
argument of perigee: 210.4777°
revolutions per day: 14.83254949
mean anomaly at epoch: 305.9730°
orbit number at epoch: 83563

The dashed part of the orbit path shows where the satellite is in the earth's shadow,  

DLR